TimeMDT,TemperatureF,Dew PointF,Humidity,Sea Level PressureIn,VisibilityMPH,Wind Direction,Wind SpeedMPH,Gust SpeedMPH,PrecipitationIn,Events,Conditions,WindDirDegrees,DateUTC
12:53 AM,64.9,36.0,34,29.88,10.0,SW,10.4,-,N/A,,Scattered Clouds,230,2013-05-14 06:53:00
1:53 AM,64.0,35.1,34,29.87,10.0,SW,12.7,-,N/A,,Clear,230,2013-05-14 07:53:00
2:53 AM,63.0,35.1,35,29.87,10.0,WSW,10.4,-,N/A,,Partly Cloudy,240,2013-05-14 08:53:00
3:53 AM,62.1,35.1,37,29.87,10.0,WSW,9.2,-,N/A,,Clear,240,2013-05-14 09:53:00
4:53 AM,57.9,37.0,46,29.89,10.0,Calm,Calm,-,N/A,,Scattered Clouds,0,2013-05-14 10:53:00
5:53 AM,62.1,34.0,35,29.88,10.0,WSW,15.0,-,N/A,,Scattered Clouds,240,2013-05-14 11:53:00
6:53 AM,63.0,36.0,37,29.89,10.0,SW,9.2,-,N/A,,Mostly Cloudy,230,2013-05-14 12:53:00
7:53 AM,66.9,39.0,36,29.90,10.0,WSW,6.9,-,N/A,,Mostly Cloudy,240,2013-05-14 13:53:00
8:53 AM,72.0,37.9,29,29.90,10.0,SW,5.8,-,N/A,,Scattered Clouds,230,2013-05-14 14:53:00
9:53 AM,75.9,35.1,23,29.87,10.0,Calm,Calm,-,N/A,,Scattered Clouds,0,2013-05-14 15:53:00
10:53 AM,80.1,34.0,19,29.87,10.0,NNW,3.5,-,N/A,,Scattered Clouds,340,2013-05-14 16:53:00
11:53 AM,82.0,33.1,17,29.84,10.0,North,8.1,-,N/A,,Scattered Clouds,10,2013-05-14 17:53:00
12:53 PM,79.0,32.0,18,29.82,10.0,Variable,6.9,17.3,N/A,,Mostly Cloudy,0,2013-05-14 18:53:00
1:53 PM,82.9,33.1,17,29.79,10.0,East,9.2,18.4,N/A,,Mostly Cloudy,90,2013-05-14 19:53:00
2:40 PM,75.2,35.6,24,30.02,10.0,WNW,23.0,32.2,N/A,,Mostly Cloudy,300,2013-05-14 20:40:00
2:53 PM,73.9,37.9,27,29.83,10.0,NW,23.0,34.5,0.00,Rain,Light Rain,320,2013-05-14 20:53:00
3:53 PM,71.1,39.0,31,29.87,10.0,WSW,23.0,29.9,0.00,Rain,Light Rain,240,2013-05-14 21:53:00
4:53 PM,69.1,42.1,38,29.87,10.0,SSW,23.0,31.1,0.00,,Overcast,200,2013-05-14 22:53:00
5:53 PM,68.0,42.1,39,29.86,10.0,SSW,23.0,31.1,N/A,,Mostly Cloudy,210,2013-05-14 23:53:00
6:53 PM,70.0,37.9,31,29.83,10.0,WSW,12.7,-,N/A,,Overcast,240,2013-05-15 00:53:00
7:53 PM,66.9,39.9,37,29.83,10.0,SW,17.3,-,N/A,,Overcast,230,2013-05-15 01:53:00
8:53 PM,64.9,39.9,40,29.84,10.0,NW,6.9,-,N/A,,Mostly Cloudy,320,2013-05-15 02:53:00
9:53 PM,64.9,39.0,39,29.83,10.0,WNW,4.6,-,N/A,,Mostly Cloudy,290,2013-05-15 03:53:00
10:53 PM,62.1,41.0,46,29.82,10.0,Calm,Calm,-,N/A,,Mostly Cloudy,0,2013-05-15 04:53:00
11:53 PM,63.0,39.9,43,29.81,10.0,South,13.8,-,N/A,,Mostly Cloudy,180,2013-05-15 05:53:00